[[{"header":{"parameterUnit":"m.s-1","parameterCategory":1,"la1":30.2991,"la2":30.254,"lo1":-89.0895,"lo2":-89.0444,"dy":0.0017,"dx":0.0017,"nx":28,"ny":28,"refTime":"2024-03-24T21:00:00:Z","depth":0,"parameterNumber":2,"parameterNumberName":"U-component_of_WINDS"},"data":[0,0,0,0,0,0,0,0,0,0,0,0,0,0,0,0,0,0,0,0,0,0,0,0,0,0,0,0,0,0,0,0,0,0,0,0,0,0,0,0,0,0,0,0,0,0,0,0,0,0,0,0,0,0,0,0,0,0,-7.8327,-7.833,0,-7.8573,-7.8576,-7.8579,-7.8658,-7.8657,-7.8656,-7.8654,-7.8903,-7.891,-7.8918,0,0,0,0,0,0,0,0,0,0,0,0,0,-7.7924,-7.7931,-7.8327,-7.833,-7.8333,-7.8573,-7.8576,-7.8579,-7.8658,-7.8657,-7.8655,-7.8654,-7.89,-7.8909,-7.8918,0,0,0,0,0,0,0,0,0,0,0,0,0,-7.8127,-7.7933,-7.8326,-7.8401,-7.8411,-7.8572,-7.8576,-7.858,-7.8658,-7.8657,-7.8655,-7.8653,-7.8897,-7.8908,-7.892,-7.9023,0,0,-7.8955,-7.896,0,0,0,0,0,0,0,0,-7.8115,-7.8142,-7.8387,-7.8397,-7.8407,-7.8583,-7.8525,-7.8729,-7.8659,-7.8564,-7.8654,-7.8653,-7.8797,-7.8817,-7.8867,-7.9035,-7.9045,-7.8956,-7.8963,-7.8967,-7.8971,0,0,0,0,0,0,0,-7.8101,-7.8132,-7.8424,-7.8391,-7.8403,-7.8422,-7.8449,-7.8564,-7.8687,-7.8572,-7.8579,-7.8607,-7.8802,-7.8855,-7.8873,-7.9049,-7.8955,-7.8965,-7.8972,-7.8977,-7.9315,-7.9317,0,0,0,0,0,0,-7.8075,-7.8119,-7.8416,-7.8432,-7.8254,-7.8431,-7.8461,-7.8528,-7.8686,-7.8708,-7.8608,-7.8609,-7.8837,-7.886,-7.8882,-7.9013,-7.8967,-7.8978,-7.8985,-7.9313,-7.9316,-7.9318,0,0,0,0,0,0,-7.8066,-7.8101,-7.8407,-7.8277,-7.8318,-7.8439,-7.8514,-7.8534,-7.8587,-7.8713,-7.8735,-7.8639,-7.8836,-7.8866,-7.8988,-7.9023,-7.8983,-7.8994,-7.931,-7.9314,-7.9317,-7.9276,0,0,0,0,0,0,-7.8054,-7.8097,-7.8138,-7.8278,-7.8324,-7.8508,-7.8517,-7.854,-7.8607,-7.8611,-7.8748,-7.8769,-7.8837,-7.897,-7.8999,-7.9038,-7.9003,-7.9308,-7.9312,-7.9316,-7.9275,-7.9277,-7.928,0,0,0,0,0,-7.8039,-7.8116,-7.8139,-7.8175,-7.8378,-7.851,-7.8537,-7.8614,-7.8609,-7.8651,-7.8732,-7.8765,-7.9015,-7.8982,-7.9015,-7.9058,-7.9306,-7.9311,-7.9315,-7.9273,-7.9277,-7.928,0,0,0,0,0,0,-7.7975,-7.8135,-7.8163,-7.8287,-7.8385,-7.8523,-7.8578,-7.8615,-7.8715,-7.8715,-7.8806,-7.8837,-7.8951,-7.9018,-7.8978,-7.9167,-7.9162,-7.9174,-7.9119,-7.9123,-7.9125,-7.9106,-7.9012,0,0,0,0,0,-7.7975,-7.807,-7.8205,-7.8302,-7.8349,-7.8455,-7.8516,-7.8567,-7.8671,-7.8712,-7.8803,-7.8902,-7.9003,-7.9067,-7.9167,-7.9286,-7.9316,-7.9332,-7.9334,-7.9336,-7.9343,-7.9411,-7.9419,-7.9333,-7.9333,-7.9333,0,0,-7.7976,-7.8076,-7.813,-7.8291,-7.8373,-7.8468,-7.8489,-7.8589,-7.866,-7.8727,-7.8848,-7.8918,-7.9034,-7.9155,-7.9213,-7.9213,-7.9375,-7.9342,-7.9342,-7.9349,-7.9417,-7.9425,-7.9432,-7.9337,-7.9336,-7.9336,0,0,-7.8027,-7.8113,-7.8202,-7.8284,-7.8408,-7.8479,-7.85,-7.8634,-7.8683,-7.8806,-7.8859,-7.8945,-7.9117,-7.9198,-7.9262,-7.9346,-7.9379,-7.9376,-7.9387,-7.9452,-7.9459,-7.9465,-7.9494,-7.9503,-7.9384,-7.9384,-7.9384,0,-7.8012,-7.8159,-7.8243,-7.8341,-7.841,-7.8477,-7.8568,-7.8644,-7.8793,-7.8839,-7.8838,-7.9057,-7.914,-7.928,-7.9301,-7.9351,-7.9377,-7.9359,-7.9451,-7.9459,-7.9466,-7.9494,-7.9505,-7.9383,-7.9383,-7.9383,-7.9383,0,-7.8134,-7.8235,-7.8292,-7.8436,-7.8513,-7.8606,-7.8704,-7.8771,-7.8817,-7.8887,-7.9011,-7.9115,-7.9236,-7.9274,-7.932,-7.9422,-7.9418,-7.9434,-7.943,-7.9471,-7.9499,-7.9511,-7.9381,-7.9381,-7.9382,-7.9382,0,0,-7.8147,-7.8339,-7.8358,-7.8425,-7.8568,-7.8647,-7.8744,-7.8865,-7.8919,-7.9021,-7.9104,-7.925,-7.9265,-7.9338,-7.9393,-7.945,-7.9509,-7.9459,-7.9463,-7.9463,-7.9626,-7.9612,-7.9623,-7.9533,-7.9536,-7.9538,-7.9616,0,-7.8215,-7.8391,-7.8471,-7.8611,-7.8705,-7.8772,-7.8857,-7.8953,-7.9022,-7.9112,-7.9188,-7.9289,-7.9303,-7.9347,-7.9407,-7.9489,-7.9542,-7.9485,-7.961,-7.9613,-7.9575,-7.9638,-7.9623,-7.9691,-7.9628,-7.9629,-7.9631,0,-7.8316,-7.8419,-7.8569,-7.8701,-7.8744,-7.8818,-7.8935,-7.9021,-7.9132,-7.9178,-7.926,-7.9314,-7.9418,-7.941,-7.9554,-7.9513,-7.9569,-7.9618,-7.9622,-7.9634,-7.9622,-7.9649,-7.9715,-7.9724,-7.9649,-7.9648,-7.9646,0,-7.8308,-7.8485,-7.8597,-7.8652,-7.881,-7.8861,-7.8929,-7.9039,-7.9106,-7.9209,-7.9254,-7.9367,-7.9429,-7.9515,-7.9598,-7.9584,-7.9734,-7.9733,-7.9774,-7.9772,-7.9799,-7.9796,-7.9873,-7.984,-7.984,-7.984,-7.9839,0,-7.8373,-7.8462,-7.8596,-7.8665,-7.8766,-7.8858,-7.8955,-7.9028,-7.9126,-7.9209,-7.9275,-7.9352,-7.9458,-7.9549,-7.9614,-7.9723,-7.9751,-7.9791,-7.9806,-7.9783,-7.9778,-7.9819,-7.9816,-7.9843,-7.9842,-7.9841,-7.9841,0,-7.838,-7.8474,-7.8601,-7.8741,-7.8778,-7.8846,-7.8966,-7.9035,-7.9109,-7.9214,-7.9244,-7.9359,-7.9469,-7.9561,-7.9706,-7.975,-7.9863,-7.9883,-7.9825,-7.9833,-7.9868,-7.9862,-7.9972,-7.999,-7.9946,-7.9947,-7.9947,0,-7.8414,-7.8484,-7.8632,-7.8693,-7.8761,-7.8859,-7.8929,-7.9022,-7.9092,-7.9225,-7.9278,-7.9394,-7.949,-7.9663,-7.9759,-7.987,-7.9892,-7.9923,-7.9909,-7.9884,-7.989,-7.9884,-7.9891,-7.9922,-7.9923,-7.9923,-7.9923,0,-7.8464,-7.8507,-7.8606,-7.8722,-7.8804,-7.8899,-7.8996,-7.9042,-7.9153,-7.9229,-7.9343,-7.9418,-7.9567,-7.968,-7.9802,-7.9872,-7.9915,-7.9927,-7.9942,-7.9918,-7.988,-7.9899,-7.9825,-7.9923,-7.9923,-7.9923,-7.9923,-7.9923,-7.8485,-7.855,-7.8664,-7.8772,-7.8855,-7.8945,-7.9017,-7.91,-7.9197,-7.9326,-7.9376,-7.9492,-7.9602,-7.9771,-7.9841,-7.9933,-7.9939,-7.9961,-7.9966,-7.997,-7.9965,-7.9868,-7.9956,-7.9956,-7.9956,-7.9957,-7.9957,0,-7.8536,-7.8614,-7.8712,-7.8846,-7.8931,-7.8968,-7.9077,-7.9145,-7.9247,-7.9347,-7.9442,-7.9573,-7.9684,-7.979,-7.9906,-7.9959,-7.9982,-7.9986,-7.9982,-7.9997,-7.9955,-7.9929,-7.9966,-7.9966,-7.9966,-7.9966,-7.9966,-7.9966,-7.8573,-7.8685,-7.8742,-7.8896,-7.8974,-7.9088,-7.9148,-7.923,-7.9311,-7.9455,-7.9547,-7.9616,-7.9719,-7.9843,-7.9946,-7.9975,-8.0013,-8.0012,-8.0045,-8.0002,-8.0,-7.9998,-7.9974,-8.002,-8.002,-8.008,-8.008,-8.0081]},{"header":{"parameterUnit":"m.s-1","parameterCategory":1,"la1":30.2991,"la2":30.254,"lo1":-89.0895,"lo2":-89.0444,"dy":0.0017,"dx":0.0017,"nx":28,"ny":28,"refTime":"2024-03-24T21:00:00:Z","depth":0,"parameterNumber":3,"parameterNumberName":"V-component_of_WINDS"},"data":[0,0,0,0,0,0,0,0,0,0,0,0,0,0,0,0,0,0,0,0,0,0,0,0,0,0,0,0,0,0,0,0,0,0,0,0,0,0,0,0,0,0,0,0,0,0,0,0,0,0,0,0,0,0,0,0,0,0,6.0759,6.076,0,6.0858,6.086,6.0861,6.0866,6.0865,6.0864,6.0863,6.0963,6.0967,6.0971,0,0,0,0,0,0,0,0,0,0,0,0,0,6.0573,6.0577,6.0759,6.076,6.0761,6.0858,6.086,6.0861,6.0867,6.0865,6.0864,6.0863,6.0962,6.0967,6.0971,0,0,0,0,0,0,0,0,0,0,0,0,0,6.0661,6.0578,6.0759,6.0776,6.0779,6.0858,6.086,6.0861,6.0867,6.0865,6.0864,6.0862,6.0961,6.0966,6.0972,6.104,0,0,6.0989,6.0991,0,0,0,0,0,0,0,0,6.0656,6.0668,6.0772,6.0775,6.0778,6.0848,6.0831,6.0921,6.0867,6.0833,6.0863,6.0861,6.0926,6.0935,6.0957,6.1045,6.1049,6.0989,6.0993,6.0995,6.0997,0,0,0,0,0,0,0,6.065,6.0664,6.0798,6.0774,6.0777,6.0779,6.0789,6.0848,6.0888,6.0836,6.0837,6.0849,6.0928,6.0952,6.0959,6.1051,6.0989,6.0994,6.0997,6.1,6.1201,6.1203,0,0,0,0,0,0,6.0641,6.0659,6.0795,6.0801,6.0712,6.0783,6.0795,6.0827,6.0888,6.0895,6.085,6.0848,6.0943,6.0953,6.0963,6.1049,6.0995,6.1,6.1003,6.1199,6.1202,6.1204,0,0,0,0,0,0,6.0637,6.0653,6.0791,6.073,6.0748,6.0788,6.0824,6.083,6.0854,6.0898,6.0905,6.0867,6.0942,6.0955,6.1021,6.1052,6.1003,6.1008,6.1197,6.12,6.1203,6.122,0,0,0,0,0,0,6.0632,6.0652,6.0678,6.0731,6.0751,6.0848,6.0826,6.0833,6.0864,6.0863,6.0916,6.0923,6.0942,6.1013,6.1027,6.1059,6.1012,6.1195,6.1198,6.1202,6.1217,6.1223,6.1229,0,0,0,0,0,6.0625,6.0678,6.068,6.0696,6.0785,6.085,6.0862,6.0882,6.0867,6.0894,6.0922,6.0921,6.1046,6.102,6.1036,6.107,6.1193,6.1197,6.1202,6.1214,6.1222,6.1229,0,0,0,0,0,0,6.0628,6.0686,6.0688,6.076,6.08,6.0851,6.0886,6.089,6.0935,6.0932,6.0955,6.0967,6.1033,6.1058,6.1027,6.114,6.1118,6.1126,6.1122,6.113,6.1135,6.1129,6.1017,0,0,0,0,0,6.0637,6.0685,6.0733,6.0792,6.0812,6.0845,6.0874,6.0887,6.0929,6.0946,6.0979,6.102,6.1069,6.11,6.1147,6.122,6.1232,6.1251,6.1257,6.1262,6.1269,6.1311,6.1321,6.1219,6.1219,6.1219,0,0,6.0656,6.0694,6.0722,6.0793,6.0826,6.0875,6.086,6.0912,6.0949,6.0954,6.102,6.1045,6.1092,6.1163,6.1195,6.1185,6.13,6.1268,6.1271,6.1276,6.1317,6.1326,6.1335,6.1222,6.1221,6.1221,0,0,6.0717,6.0749,6.0803,6.0836,6.0886,6.0908,6.0921,6.0972,6.0989,6.1055,6.1061,6.1104,6.1187,6.1221,6.1249,6.1324,6.1325,6.1338,6.1369,6.141,6.1418,6.1426,6.1454,6.1463,6.1344,6.1345,6.1345,0,6.0735,6.081,6.083,6.0883,6.0915,6.0922,6.0977,6.1008,6.107,6.1092,6.1079,6.1185,6.1217,6.1296,6.1315,6.1336,6.1352,6.1333,6.1415,6.1423,6.143,6.1457,6.1468,6.1346,6.1346,6.1346,6.1345,0,6.083,6.0881,6.0919,6.098,6.1015,6.1069,6.1098,6.1131,6.114,6.1164,6.1231,6.127,6.1326,6.1345,6.1354,6.1426,6.1419,6.1411,6.1389,6.1441,6.1467,6.1477,6.1348,6.1347,6.1347,6.1347,0,0,6.0896,6.0969,6.0982,6.1011,6.1066,6.1107,6.1161,6.1216,6.1245,6.1287,6.1334,6.1404,6.1398,6.1429,6.1442,6.1478,6.1536,6.1466,6.1467,6.1479,6.162,6.1628,6.1639,6.1537,6.1539,6.1541,6.1617,0,6.0965,6.1062,6.1082,6.1166,6.1215,6.1223,6.127,6.1309,6.1332,6.1377,6.1402,6.1452,6.1438,6.1458,6.1493,6.1522,6.1565,6.1516,6.1582,6.1584,6.1572,6.1653,6.1661,6.1731,6.1627,6.1629,6.163,0,6.1058,6.1105,6.1194,6.1244,6.1266,6.1308,6.1361,6.1403,6.1448,6.1462,6.1498,6.1507,6.1564,6.1538,6.1617,6.1583,6.1611,6.1629,6.1632,6.1641,6.1612,6.1666,6.1754,6.1765,6.1646,6.1645,6.1644,0,6.1101,6.1185,6.125,6.1273,6.1333,6.1363,6.1389,6.1432,6.1465,6.151,6.1532,6.1583,6.1612,6.1651,6.1674,6.1653,6.1752,6.1728,6.1767,6.1766,6.1789,6.1788,6.1885,6.1803,6.1803,6.1803,6.1802,0,6.1177,6.1232,6.127,6.131,6.1372,6.1394,6.1454,6.148,6.1519,6.1564,6.1572,6.1615,6.1641,6.1687,6.1705,6.1769,6.1781,6.1795,6.18,6.1796,6.1795,6.1816,6.1813,6.1805,6.1805,6.1804,6.1804,0,6.1236,6.1263,6.1335,6.1386,6.14,6.1443,6.1487,6.1526,6.1549,6.1606,6.1621,6.1657,6.1712,6.1738,6.1805,6.1818,6.1891,6.1891,6.1876,6.1878,6.1917,6.1914,6.2033,6.2051,6.1955,6.1956,6.1956,0,6.1284,6.1327,6.1382,6.1413,6.144,6.149,6.1524,6.1547,6.1581,6.1636,6.1669,6.1724,6.177,6.1857,6.1889,6.1941,6.1944,6.1982,6.1952,6.1947,6.1947,6.1946,6.1951,6.1988,6.1989,6.199,6.1991,0,6.1367,6.1378,6.1426,6.1479,6.1519,6.1561,6.1603,6.1628,6.1658,6.1696,6.1753,6.1788,6.1858,6.1913,6.1968,6.1994,6.1998,6.2,6.2012,6.201,6.2,6.2008,6.1894,6.1997,6.1997,6.1996,6.1996,6.1995,6.1424,6.1462,6.1508,6.1561,6.1595,6.1634,6.1674,6.1702,6.175,6.1809,6.1819,6.188,6.1924,6.1998,6.2026,6.2074,6.2065,6.2082,6.2087,6.2092,6.2095,6.1991,6.2083,6.2083,6.2083,6.2083,6.2083,0,6.1509,6.1539,6.1587,6.1646,6.1688,6.1687,6.1734,6.1769,6.1823,6.1863,6.1908,6.1974,6.2028,6.2064,6.2119,6.215,6.2153,6.2164,6.2163,6.2169,6.2098,6.2084,6.216,6.216,6.216,6.216,6.216,6.216,6.1559,6.1625,6.1642,6.1725,6.1754,6.1814,6.1841,6.1877,6.191,6.1983,6.2028,6.2052,6.2091,6.2149,6.2198,6.2207,6.2228,6.2239,6.2249,6.2182,6.2174,6.2166,6.2153,6.2243,6.2243,6.2316,6.2317,6.2317]}]]